User: anonymous
Location: Voyageurs National Park
(48.5020°N, 92.9292°W)
Time: 18:16:10
(UTC-05:00)
Language:

Terra - Orbit

View from above orbital plane
View from above orbital plane
View from above satellite
View from above satellite

Ground track
Ground track

The orbit data is extracted from the following two-line orbital elements,

1 25994U 99068A   14211.50103179  .00000157  00000-0  44873-4 0  4792
2 25994 098.2102 285.6353 0001328 093.5197 266.6161 14.57089653777370
Epoch (UTC): 30 July 2014 12:01:29
Eccentricity: 0.0001328
inclination: 98.2102°
perigee height: 701 km
apogee height: 703 km
right ascension of ascending node: 285.6353°
argument of perigee: 93.5197°
revolutions per day: 14.57089653
mean anomaly at epoch: 266.6161°
orbit number at epoch: 77737

The dashed part of the orbit path shows where the satellite is in the earth's shadow,  

DLR